Regional Weather Roundup
Issued by NWS

Home | Current Version | Previous Version | Text Only | Print | Product List | Glossary On
Versions: 1 2 3 4 5 6 7 8 9 10 11 12 13 14 15 16 17 18 19 20 21 22 23 24 25 26 27 28 29 30 31 32 33 34 35 36 37 38 39 40 41 42 43 44 45 46 47 48 49 50
000
ASUS43 KMPX 282210
RWRMN
WEATHER ROUNDUP FOR MINNESOTA
NATIONAL WEATHER SERVICE TWIN CITIES/CHANHASSEN MN
400 PM CST SUN FEB 28 2021


NOTE: "FAIR" INDICATES FEW OR NO CLOUDS BELOW 12,000 FEET WITH NO
SIGNIFICANT WEATHER AND/OR OBSTRUCTIONS TO VISIBILITY. N/A MEANS
CURRENT SKY AND/OR WEATHER CONDITIONS ARE NOT AVAILABLE.

MNZ060>063-068>070-282300-
   Twin Cities Metro

CITY           SKY/WX    TMP DP  RH WIND       PRES   REMARKS
TWIN CITIES    SUNNY     31  18  58 NW15      29.93R WCI  20
ST PAUL        SUNNY     32  19  58 NW17G28   29.94R WCI  21
CRYSTAL        SUNNY     30  15  53 W18G24    29.93R WCI  18
BLAINE         SUNNY     30  19  64 W16G23    29.91R WCI  19
LAKEVILLE      SUNNY     27  18  69 W20       29.94R WCI  13
EDEN PRAIRIE   SUNNY     27  15  61 NW16G25   29.94R WCI  15
SOUTH ST PAUL  SUNNY     32  19  59 NW12G18   29.92R WCI  23
LAKE ELMO      FAIR      30  19  64 MISG      29.91R
$$
MNZ001>005-007-008-013>017-022>024-027-028-282300-
   Northwest Minnesota

CITY           SKY/WX    TMP DP  RH WIND       PRES   REMARKS
BEMIDJI        PTSUNNY   16   7  67 NW15      29.94R WCI   2
HALLOCK        MOSUNNY   16   5  62 N16       30.03R WCI   0
ROSEAU         MOSUNNY   19   0  42 W12G17    29.98R WCI   7
WARROAD        MOSUNNY   14   3  62 W9G16     29.97R WCI   2
THIEF RVR FALL PTSUNNY   16   5  62 NW16      30.00S WCI   1
CROOKSTON      PTSUNNY   18   5  57 N13       30.03S WCI   4
FOSSTON        PTSUNNY   16   7  67 NW13      29.98R WCI   2
DETROIT LAKES  PTSUNNY   18  10  73 NW10G20   29.98S WCI   6
MOORHEAD       SUNNY     25  10  54 NW13      30.04R WCI  13
PARK RAPIDS    SUNNY     19   6  57 NW17      29.93S WCI   4
MAHNOMEN       MOCLDY    19  11  69 W16G23    29.98R WCI   4
$$
MNZ006-009>011-018-025>026-282300-
   North Central Minnesota

CITY           SKY/WX    TMP DP  RH WIND       PRES   REMARKS
BAUDETTE       MOSUNNY   13   2  61 NW16      29.93R WCI  -3
FLAG ISLAND    MOSUNNY   12   0  57 NW16      29.94R WCI  -4
INTL FALLS     CLOUDY    13   1  59 NW13G24   29.90R WCI  -2
WASKISH        MOSUNNY   16   5  62 W13G18    29.94R WCI   2
BIG FORK       MOSUNNY   19   3  49 NW8G16    29.94R WCI   9
LONGVILLE      SUNNY     19   7  58 NW13G18   29.92S WCI   7
GRAND RAPIDS   SUNNY     20   7  57 NW17G24   29.90R WCI   5
CRANE LAKE     PTSUNNY   18   3  53 W7G17     29.88R WCI   8
ORR            PTSUNNY   16   1  53 NW16G24   29.85R WCI   0
COOK           SUNNY     19   3  49 NW10G20   29.85R WCI   8
WALKER         CLEAR     20   6  55 W12       29.92S WCI   8
$$
MNZ012-019>021-037-282300-
   Northeast Minnesota

CITY           SKY/WX    TMP DP  RH WIND       PRES   REMARKS
DULUTH         MOSUNNY   26  10  50 W18G30    29.78R WCI  13
ELY            MOSUNNY   21   7  53 NW14G22   29.78R WCI   8
HIBBING        SUNNY     20   7  57 NW16G31   29.83R WCI   6
EVELETH        SUNNY     23   6  50 NW15G24   29.83R WCI  10
DULUTH HARBOR  SUNNY     28  12  50 W22       29.84R WCI  15
TWO HARBORS    SUNNY     28  10  47 NW10G28   29.77R WCI  19
SILVER BAY     SUNNY     28   9  43 W13G22    29.75R WCI  18
GRAND MARAIS     N/A     32  13  45 W9G23     29.72R WCI  24
G MARAIS ARPRT MOSUNNY   25  10  54 NW13G21   29.64R WCI  13
$$
MNZ029>031-032-039>041-046>048-054>057-064-282300-
   West Central Minnesota

CITY           SKY/WX    TMP DP  RH WIND       PRES   REMARKS
FERGUS FALLS   SUNNY     21  12  68 NW14      29.98R WCI   8
WHEATON        SUNNY     28  12  50 NW10      30.05R WCI  19
MORRIS         SUNNY     25  10  54 NW15      30.02S WCI  12
ALEXANDRIA     SUNNY     20  11  68 W15G24    29.98S WCI   6
ELBOW LAKE     FAIR      22  13  70 W14       30.01S WCI   9
WADENA         SUNNY     18   9  68 W9        29.96S WCI   6
GLENWOOD       SUNNY     21  12  68 W15       29.99R WCI   8
APPLETON       SUNNY     28  16  59 NW9       30.03S WCI  20
BENSON         SUNNY     25  16  68 N10       30.03S WCI  15
ORTONVILLE     SUNNY     28  14  54 NW14      30.02S WCI  17
MADISON        SUNNY     28  18  64 NW8       30.05S WCI  20
WILLMAR        FAIR      23  14  68 NW15      30.04S WCI  10
$$
MNZ033>034-036-042>043-049>051-058-059-282300-
   Central Minnesota

CITY           SKY/WX    TMP DP  RH WIND       PRES   REMARKS
ST CLOUD       SUNNY     25  10  53 NW16      29.95R WCI  12
SAUK CENTRE      N/A     21  10  63 NW17      29.98R WCI   6
PAYNESVILLE    SUNNY     21  14  73 W15       30.00R WCI   8
AITKIN         SUNNY     25   9  50 NW10      29.90R WCI  15
PINE RIVER     SUNNY     25   9  50 NW13      29.95R WCI  13
BRAINERD       SUNNY     26   8  46 W15G24    29.92R WCI  14
STAPLES        SUNNY     19   9  63 W16       29.96R WCI   5
LONG PRAIRIE   FAIR      23  10  58 NW13G20   29.97R HAZE    WCI  11
LITTLE FALLS   SUNNY     23   5  46 W18G25    29.96R WCI   9
CAMP RIPLEY    FAIR      22   8  54 W15       29.95R WCI   9
LITCHFIELD     SUNNY     23  16  74 W10G17    29.99S WCI  12
BUFFALO        SUNNY     25  14  63 MISG      29.98R
HUTCHINSON     MOSUNNY   22  16  76 W17       30.01R WCI   8
$$
MNZ037-044-045-052-053-282300-
   East Central Minnesota

CITY           SKY/WX    TMP DP  RH WIND       PRES   REMARKS
PRINCETON      SUNNY     28  14  54 W16       29.94R WCI  17
MORA           SUNNY     32  14  47 NW12      29.90S WCI  23
CAMBRIDGE      SUNNY     30  16  55 W15       29.91R WCI  19
RUSH CITY      SUNNY     31  12  46 NW6       29.89R WCI  25
MOOSE LAKE     SUNNY     30  12  47 NW12G17   29.84R WCI  21
HINCKLEY       CLEAR     32  10  40 NW12G22   29.88R WCI  23
CLOQUET        SUNNY     25   9  50 NW13G21   29.81R WCI  13
MCGREGOR       SUNNY     27  10  50 NW14G21   29.88R WCI  15
$$
MNZ071>073-080-081-089-090-097-098-282300-
   Southwest Minnesota

CITY           SKY/WX    TMP DP  RH WIND       PRES   REMARKS
MONTEVIDEO     SUNNY     25  10  54 NW9       30.03F WCI  15
GRANITE FALLS  SUNNY     25  16  69 W12       30.06S WCI  14
CANBY          SUNNY     28  15  57 NW10      30.05S WCI  19
MARSHALL       SUNNY     24  16  71 NW14      30.05R WCI  12
REDWOOD FALLS  SUNNY     21  13  71 NW16      30.03S WCI   7
OLIVIA         SUNNY     21  14  73 NW14      30.02S WCI   8
PIPESTONE      SUNNY     21  16  79 NW10      30.04R WCI  10
WINDOM         SUNNY     21  16  79 W14       30.01S WCI   8
WORTHINGTON    SUNNY     24  18  77 NW18      30.04R WCI  10
JACKSON        SUNNY     27  19  74 NW15G23   30.02R WCI  15
TRACY          SUNNY     24  14  66 NW9       30.03S WCI  14
SLAYTON        SUNNY     22  14  71 W14       30.03S WCI   9
$$
MNZ065>067-074>077-082>085-091>093-282300-
   South Central Minnesota

CITY           SKY/WX    TMP DP  RH WIND       PRES   REMARKS
MANKATO        PTSUNNY   21  17  84 W21G26    30.00R WCI   5
NEW ULM        SUNNY     23  14  68 NW16      30.02R WCI  10
ST JAMES       SUNNY     21  18  86 NW22G30   30.01R WCI   5
FAIRMONT       SUNNY     25  18  74 NW22      30.02R WCI  10
GLENCOE        SUNNY     22  14  71 W14       29.99R WCI   9
FARIBAULT        N/A     27  21  80 W10G22    29.96R WCI  17
OWATONNA       MOSUNNY   25  19  80 W22       29.95R WCI  10
WASECA         MOSUNNY   23  19  86 W20       29.98R WCI   8
ALBERT LEA     SUNNY     27  21  80 NW12G18   29.95R WCI  16
$$
MNZ078>079-086>088-094>096-282300-
   Southeast Minnesota

CITY           SKY/WX    TMP DP  RH WIND       PRES   REMARKS
ROCHESTER      SUNNY     30  22  72 NW24      29.88R WCI  16
RED WING       SUNNY     34  21  60 NW9       29.89R WCI  26
STANTON        SUNNY     30  22  73 W16       29.93R WCI  18
DODGE CENTER   MOSUNNY   27  21  80 W15       29.91R WCI  15
WINONA         MOSUNNY   34  28  80 NW17G25   29.88R WCI  23
PRESTON        PTSUNNY   31  24  78 NW16G24   29.89R WCI  19
$$
ABBREVIATIONS USED IN REMARKS
   TC - TEMPERATURES IN CELSIUS
  WCI - WIND CHILL INDEX
   HX - HEAT INDEX
  VSB - VISIBILITY
$$




USA.gov is the U.S. government's official web portal to all federal, state and local government web resources and services.